This is the latest recevied weather packets stored in our database for station/object AC0MR. If no packets are shown the sender has not sent any weather packets the latest 10 day(s).
| Time | Temp. | Humidity | Pressure | Rain* | Wind** | Luminosity | Snow |
|---|---|---|---|---|---|---|---|
| 1777764919 | 15.56° C | 35% | 1015.3 hPa | 0 mm | - | 59 W/m² | - |
| 1777764318 | 15.56° C | 33% | 1015.5 hPa | 0 mm | - | 242 W/m² | - |
| 1777763718 | 16.11° C | 33% | 1015.6 hPa | 0 mm | - | 216 W/m² | - |
| 1777763119 | 16.11° C | 32% | 1015.7 hPa | 0 mm | - | 309 W/m² | - |
| 1777762519 | 16.11° C | 33% | 1015.8 hPa | 0 mm | - | 353 W/m² | - |
| 1777761919 | 16.11° C | 32% | 1015.8 hPa | 0 mm | - | 367 W/m² | - |
| 1777761319 | 16.67° C | 31% | 1015.8 hPa | 0 mm | - | 400 W/m² | - |
| 1777760718 | 16.67° C | 30% | 1016 hPa | 0 mm | - | 451 W/m² | - |
| 1777760118 | 16.67° C | 31% | 1016.2 hPa | 0 mm | - | 479 W/m² | - |
| 1777759518 | 16.67° C | 30% | 1016.1 hPa | 0 mm | - | 512 W/m² | - |
| 1777758918 | 16.67° C | 33% | 1016.4 hPa | 0 mm | - | 536 W/m² | - |
| 1777758319 | 16.67° C | 32% | 1016.1 hPa | 0 mm | - | 568 W/m² | - |
| 1777757718 | 16.67° C | 32% | 1016.3 hPa | 0 mm | - | 594 W/m² | - |
| 1777757118 | 16.67° C | 31% | 1016.3 hPa | 0 mm | - | 622 W/m² | - |
| 1777756518 | 16.67° C | 32% | 1016.6 hPa | 0 mm | - | 652 W/m² | - |
| 1777755918 | 16.67° C | 30% | 1016.6 hPa | 0 mm | - | 664 W/m² | - |
| 1777755318 | 16.67° C | 32% | 1016.9 hPa | 0 mm | - | 700 W/m² | - |
| 1777754718 | 16.67° C | 31% | 1016.9 hPa | 0 mm | - | 722 W/m² | - |
| 1777754118 | 16.67° C | 33% | 1017.2 hPa | 0 mm | - | 746 W/m² | - |
| 1777753518 | 16.67° C | 33% | 1017.2 hPa | 0 mm | - | 766 W/m² | - |
| 1777752918 | 16.11° C | 33% | 1017.3 hPa | 0 mm | - | 789 W/m² | - |
| 1777752318 | 16.11° C | 32% | 1017.6 hPa | 0 mm | - | 818 W/m² | - |
| 1777751718 | 16.11° C | 34% | 1017.7 hPa | 0 mm | - | 848 W/m² | - |
| 1777751118 | 16.11° C | 35% | 1018 hPa | 0 mm | - | 856 W/m² | - |
| 1777750518 | 16.11° C | 37% | 1018 hPa | 0 mm | - | 877 W/m² | - |
* Rain latest hour (hover to see other rain measurements)
** Current wind speed in m/s (hover to see current wind gust speed)